Junction, TX

3:26 AM CST on February 10, 2016 (GMT -0600)
Kimble County

Weather History for KJCT - April, 2013

Change the Weather History Date:

Monday, April 1, 2013

  Actual Average Record
Temperature  
Mean Temperature 66 °F -  
Max Temperature 84 °F 72 °F 95 °F (2011)
Min Temperature 48 °F 47 °F 30 °F (1998)
Cooling Degree Days 1    
Growing Degree Days 16 (Base 50)    
Moisture  
Dew Point 53 °F    
Average Humidity 73    
Maximum Humidity 94    
Minimum Humidity 29    
Precipitation  
Precipitation 0.00 in - - ()
Sea Level Pressure  
Sea Level Pressure 29.96 in    
Wind  
Wind Speed 2 mph (SSE)    
Max Wind Speed 13 mph    
Max Gust Speed 21 mph    
Visibility 5 miles    
Events      
Averages and records for this station are not official NWS values.
T = Trace of Precipitation, MM = Missing Value Source: NWS Daily Summary

Daily Weather History Graph

Daily Weather History Graph

Search for Another Location

Airport or City:

Trip Planner

Search our weather history database for the weather conditions in past years. The results will help you decide how hot, cold, wet, or windy it might be!

Date:

Astronomy

Apr. 01, 2013 Rise Set
Actual Time 7:27 AM CDT 7:58 PM CDT
Civil Twilight 7:03 AM CDT 8:22 PM CDT
Nautical Twilight 6:35 AM CDT 8:50 PM CDT
Astronomical Twilight 6:06 AM CDT 9:19 PM CDT
Moon 12:50 AM CDT (4/1) 11:34 AM CDT (4/1)
Length of Visible Light 13h 18m
Length of Day
12h 30m
Waning Gibbous, 67% of the Moon is Illuminated
Apr 1
Waning Gibbous
Apr 2
Last Quarter
Apr 10
New
Apr 18
First Quarter
Apr 25
Full

Hourly Weather History & Observations

Time (CDT) Temp. Heat Index Dew Point Humidity Pressure Visibility Wind Dir Wind Speed Gust Speed Precip Events Conditions
12:51 AM 59.0 °F - 53.1 °F 81% 29.93 in 8.0 mi Calm Calm - N/A   Clear
1:51 AM 55.9 °F - 52.0 °F 87% 29.95 in 8.0 mi Calm Calm - N/A   Clear
2:51 AM 54.0 °F - 51.1 °F 90% 29.95 in 7.0 mi NW 3.5 mph - N/A   Clear
3:51 AM 54.0 °F - 51.1 °F 90% 29.94 in 6.0 mi Calm Calm - N/A   Partly Cloudy
4:24 AM 51.8 °F - 50.0 °F 94% 30.02 in 1.5 mi Calm Calm - N/A   Clear
4:28 AM 51.8 °F - 50.0 °F 94% 30.02 in 0.8 mi Calm Calm - N/A   Mist
4:34 AM 51.8 °F - 50.0 °F 94% 30.02 in 1.5 mi Calm Calm - N/A   Partly Cloudy
4:36 AM 51.8 °F - 50.0 °F 94% 30.01 in 3.0 mi Calm Calm - N/A   Partly Cloudy
4:51 AM 52.0 °F - 50.0 °F 93% 29.93 in 5.0 mi Calm Calm - N/A   Partly Cloudy
5:51 AM 52.0 °F - 50.0 °F 93% 29.94 in 4.0 mi Calm Calm - N/A   Clear
6:10 AM 50.0 °F - 48.2 °F 94% 30.02 in 1.8 mi Calm Calm - N/A   Scattered Clouds
6:14 AM 50.0 °F - 48.2 °F 94% 30.02 in 0.8 mi Calm Calm - N/A   Mostly Cloudy
6:20 AM 50.0 °F - 48.2 °F 94% 30.02 in 1.0 mi Calm Calm - N/A   Scattered Clouds
6:26 AM 51.8 °F - 48.2 °F 88% 30.02 in 3.0 mi Calm Calm - N/A   Scattered Clouds
6:49 AM 48.2 °F - 46.4 °F 93% 30.03 in 1.5 mi Calm Calm - N/A   Clear
6:51 AM 48.9 °F - 46.9 °F 93% 29.95 in 1.2 mi Calm Calm - N/A   Clear
6:59 AM 51.8 °F - 48.2 °F 88% 30.03 in 3.0 mi Calm Calm - N/A   Scattered Clouds
7:51 AM 50.0 °F - 48.0 °F 93% 29.97 in 4.0 mi Calm Calm - N/A   Mostly Cloudy
7:57 AM 51.8 °F - 48.2 °F 88% 30.04 in 4.0 mi Calm Calm - N/A   Mostly Cloudy
8:49 AM 53.6 °F - 50.0 °F 88% 30.07 in 4.0 mi Calm Calm - N/A   Overcast
8:51 AM 53.1 °F - 50.0 °F 89% 30.00 in 4.0 mi Calm Calm - N/A   Overcast
9:13 AM 55.4 °F - 51.8 °F 88% 30.07 in 5.0 mi Calm Calm - N/A   Overcast
9:51 AM 60.1 °F - 55.0 °F 83% 30.00 in 6.0 mi Calm Calm - N/A   Haze
10:51 AM 66.0 °F - 57.9 °F 75% 30.00 in 6.0 mi Calm Calm - N/A   Haze
11:51 AM 71.1 °F - 59.0 °F 66% 29.98 in 7.0 mi South 8.1 mph - N/A   Mostly Cloudy
12:02 PM 71.6 °F - 59.0 °F 64% 30.06 in 7.0 mi Variable 6.9 mph - N/A   Scattered Clouds
12:11 PM 71.6 °F - 59.0 °F 64% 30.06 in 7.0 mi South 8.1 mph - N/A   Mostly Cloudy
12:23 PM 73.4 °F - 59.0 °F 61% 30.05 in 7.0 mi South 6.9 mph - N/A   Scattered Clouds
12:51 PM 75.0 °F - 59.0 °F 57% 29.96 in 7.0 mi SE 5.8 mph - N/A   Clear
1:51 PM 79.0 °F - 57.9 °F 48% 29.94 in 8.0 mi Calm Calm - N/A   Clear
2:51 PM 82.0 °F 81.4 °F 55.0 °F 39% 29.89 in 8.0 mi ESE 8.1 mph - N/A   Clear
3:51 PM 82.9 °F 81.8 °F 53.1 °F 36% 29.86 in 9.0 mi South 9.2 mph - N/A   Clear
4:51 PM 84.9 °F - 52.0 °F 32% 29.83 in 9.0 mi SE 12.7 mph - N/A   Clear
5:51 PM 84.0 °F - 52.0 °F 33% 29.81 in 9.0 mi SE 10.4 mph - N/A   Clear
6:51 PM 82.0 °F 81.4 °F 55.0 °F 39% 29.81 in 8.0 mi SE 11.5 mph 20.7 mph N/A   Clear
7:51 PM 79.0 °F - 55.9 °F 45% 29.82 in 8.0 mi SE 11.5 mph - N/A   Clear
8:51 PM 75.9 °F - 55.9 °F 50% 29.84 in 8.0 mi SE 8.1 mph - N/A   Clear
9:51 PM 73.9 °F - 57.0 °F 55% 29.86 in 8.0 mi SE 9.2 mph - N/A   Overcast
10:51 PM 73.0 °F - 57.0 °F 57% 29.87 in 8.0 mi SSE 3.5 mph - N/A   Mostly Cloudy
11:51 PM 70.0 °F - 57.0 °F 63% 29.85 in 7.0 mi SE 6.9 mph - N/A   Clear